Date,TemperatureHighF,TemperatureAvgF,TemperatureLowF,DewpointHighF,DewpointAvgF,DewpointLowF,HumidityHigh,HumidityAvg,HumidityLow,PressureMaxIn,PressureMinIn,WindSpeedMaxMPH,WindSpeedAvgMPH,GustSpeedMaxMPH,PrecipitationSumIn
2013-8-1,72.2,63.1,53.9,58.7,54.3,49.3,89,74,56,29.95,29.82,19,2,19,0.00
2013-8-2,70.9,62.5,53.7,57.2,53.8,51.3,94,75,53,30.00,29.80,17,1,17,0.04
2013-8-3,71.7,60.7,51.4,56.3,51.9,48.3,92,74,47,30.19,30.00,15,1,20,0.00
2013-8-4,70.8,59.2,46.3,56.3,50.5,43.8,94,75,51,30.24,30.03,10,0,11,0.00
2013-8-5,71.0,60.8,53.3,64.5,57.5,48.9,94,89,79,30.04,29.77,8,2,9,1.03
2013-8-6,73.5,66.0,61.3,63.7,61.0,57.6,93,85,60,29.79,29.65,15,2,15,0.10
2013-8-7,71.9,63.4,52.7,60.5,54.4,48.5,94,75,46,30.00,29.69,14,1,14,0.01
2013-8-8,70.6,59.4,48.2,60.2,53.6,45.7,94,82,57,30.03,29.96,24,2,24,0.02
2013-8-9,68.4,60.4,51.5,55.7,52.7,48.8,93,77,54,30.09,29.95,17,2,22,0.00
2013-8-10,72.5,61.8,54.5,59.3,54.6,51.3,91,78,55,30.15,30.07,10,1,13,0.00
2013-8-11,75.9,62.1,49.4,60.3,54.1,47.0,94,77,51,30.10,29.98,9,0,11,0.00
2013-8-12,73.5,61.7,49.0,60.1,54.1,45.6,94,77,54,30.08,29.94,14,1,16,0.00
2013-8-13,66.6,55.8,45.9,53.5,48.5,43.4,94,78,58,30.20,30.07,10,1,11,0.01
2013-8-14,71.2,56.9,43.8,54.5,48.0,41.3,93,75,47,30.22,30.09,15,0,15,0.00
2013-8-15,76.5,62.0,48.2,59.6,52.6,45.7,94,74,46,30.11,30.06,13,1,15,0.00
2013-8-16,80.0,65.2,50.3,61.5,54.9,47.8,94,73,41,30.15,30.10,11,1,14,0.00
2013-8-17,77.7,65.6,52.4,60.1,55.8,49.8,94,73,50,30.19,30.07,21,4,21,0.01
2013-8-18,78.5,66.4,52.3,61.2,56.2,49.8,93,71,48,30.14,29.97,22,4,23,0.00
2013-8-19,80.1,70.2,61.6,68.1,62.5,56.6,86,77,65,30.00,29.87,20,5,21,0.00
2013-8-20,85.4,74.7,63.8,72.3,67.4,61.4,93,79,62,29.91,29.80,18,4,20,0.00
2013-8-21,80.7,73.3,63.4,73.9,68.4,60.3,92,85,67,29.98,29.78,14,2,15,0.12
2013-8-22,78.4,67.3,53.3,60.3,54.3,49.5,91,66,40,30.13,29.98,10,1,13,0.00
2013-8-23,80.5,64.0,48.6,60.3,53.2,45.5,93,71,39,30.17,30.05,14,1,14,0.00
2013-8-24,81.8,72.5,62.5,70.4,64.2,58.5,91,76,61,30.12,29.90,22,4,28,0.00
2013-8-25,90.4,80.8,72.4,75.5,72.1,69.0,90,76,59,29.95,29.85,26,8,26,0.00
2013-8-26,83.0,76.0,69.4,77.2,72.1,66.9,94,88,75,29.98,29.82,26,2,33,2.44
2013-8-27,81.5,71.8,66.5,74.7,69.2,64.7,96,92,74,29.89,29.74,13,1,13,1.47
2013-8-28,82.1,70.1,61.5,70.9,65.9,60.1,95,87,54,30.02,29.88,7,0,8,0.01
2013-8-29,80.8,70.9,66.5,72.6,67.6,63.8,94,90,72,30.01,29.75,17,2,19,0.47
2013-8-30,75.5,68.9,59.0,69.1,64.6,57.0,95,87,68,29.90,29.77,14,2,18,0.01
2013-8-31,79.5,67.5,55.9,67.9,61.7,54.3,95,83,61,29.89,29.66,13,2,14,0.08